Skip Page Navigation
NASA JPL Caltech
NASA Logo - Jet Propulsion Laboratory + View the NASA Portal
+ Near-Earth Object (NEO) Program
Search JPL
JPL Home Earth Solar System Stars & Galaxies Technology
JPL Solar System Dynamics
BODIES ORBITS EPHEMERIDES TOOLS PHYSICAL DATA DISCOVERY FAQ SITE MAP
JPL Small-Body Database Browser
Search: [ help ]  
(2006 HW57)
Classification: Amor [NEO, PHA]          SPK-ID: 3331094
Ephemeris | Orbit Diagram | Orbital Elements | Physical Parameters | Close-Approach Data ]

[ hide orbit diagram ]
Orbit Diagram
Note: Make sure you have Java enabled on your browser to see the applet. This applet is provided as a 3D orbit visualization tool. The applet was implemented using 2-body methods, and hence should not be used for determining accurate long-term trajectories (over several years or decades) or planetary encounter circumstances. For accurate long-term ephemerides, please instead use our Horizons system.
Orbit Viewer

Additional Notes: the orbits shown in the applet are color coded. The planets are white lines, and the asteroid/comet is a blue line. The bright white line indicates the portion of the orbit that is above the ecliptic plane, and the darker portion is below the ecliptic plane. Likewise for the asteroid/comet orbit, the light blue indicates the portion above the ecliptic plane, and the dark blue the portion below the ecliptic plane.

Orbit Viewer applet originally written and kindly provided by Osamu Ajiki (AstroArts), and further modified by Ron Baalke (JPL).


Orbital Elements at Epoch 2456400.5 (2013-Apr-18.0) TDB
Reference: JPL 57 (heliocentric ecliptic J2000)
 Element Value Uncertainty (1-sigma)   Units 
e .5201359460459043 5.4509e-08  
a 2.144833048134943 2.3902e-07 AU
q 1.029228281532754 2.8478e-08 AU
i 7.151342840569094 4.047e-06 deg
node 251.2070853534414 2.9922e-05 deg
peri 33.54299627363444 3.2667e-05 deg
M 56.47008583163215 0.00013129 deg
tp 2456220.528136695759
(2012-Oct-20.02813670)
0.00038836 JED
period 1147.330836058941
3.14
0.00019179
5.251e-07
d
yr
n .3137717462877515 5.245e-08 deg/d
Q 3.260437814737132 3.6334e-07 AU
  Orbit Determination Parameters
   # obs. used (total)      328  
   data-arc span      1053 days (2.88 yr)  
   first obs. used      2006-04-29  
   last obs. used      2009-03-17  
   planetary ephem.      DE405  
   SB-pert. ephem.      SB405-CPV-2  
   condition code      1  
   fit RMS      .57788  
   data source      ORB  
   producer      Otto Matic  
   solution date      2011-Sep-14 20:09:33  

Additional Information
 Earth MOID = .0462363 AU 
 T_jup = 3.514 
[ show covariance matrix ]

Ephemeris | Orbit Diagram | Orbital Elements | Physical Parameters | Close-Approach Data ]

Physical Parameter Table
Parameter Symbol Value Units Sigma Reference Notes
absolute magnitude H 20.323 mag .54121 57 autocmod 2.5a

[ show close-approach data ]
Ephemeris | Orbit Diagram | Orbital Elements | Physical Parameters | Close-Approach Data ]
ABOUT SSD CREDITS/AWARDS PRIVACY/COPYRIGHT GLOSSARY LINKS
FirstGov 2013-May-25 16:37 UT
(server date/time)  
NASA Home Page
Site Manager:   Donald K. Yeomans
Webmaster  Alan B. Chamberlin